TimeCST,TemperatureF,Dew PointF,Humidity,Sea Level PressureIn,VisibilityMPH,Wind Direction,Wind SpeedMPH,Gust SpeedMPH,PrecipitationIn,Events,Conditions,WindDirDegrees,DateUTC
6:00 AM,75,73,92,29.89,12,ESE,2.3,,,,Scattered Clouds,120,2013-09-10 12:00:00
6:00 AM,75.2,73.4,94,29.87,6.2,ESE,2.3,-,N/A,Fog,Mostly Cloudy,120,2013-09-10 12:00:00
7:00 AM,78.8,75.2,89,29.89,6.2,Calm,Calm,-,N/A,Fog,Scattered Clouds,0,2013-09-10 13:00:00
8:00 AM,82.4,77.0,84,29.90,6.2,ESE,2.3,-,N/A,,Mostly Cloudy,110,2013-09-10 14:00:00
9:00 AM,84,76,71,29.92,12,Calm,Calm,,,,Overcast,,2013-09-10 15:00:00
9:00 AM,84.2,75.2,74,29.90,6.2,Calm,Calm,-,N/A,,Mostly Cloudy,0,2013-09-10 15:00:00
10:00 AM,86.0,75.2,70,29.91,6.2,Calm,Calm,-,N/A,,Mostly Cloudy,0,2013-09-10 16:00:00
11:00 AM,84.2,73.4,70,29.89,6.2,WSW,10.4,-,N/A,,Mostly Cloudy,240,2013-09-10 17:00:00
12:00 PM,85,74,62,29.88,12,SW,9.2,,,,Partly Cloudy,230,2013-09-10 18:00:00
12:00 PM,86.0,73.4,66,29.87,6.2,SW,9.2,-,N/A,,Scattered Clouds,230,2013-09-10 18:00:00
1:00 PM,87.8,75.2,66,29.83,6.2,West,6.9,-,N/A,,Scattered Clouds,260,2013-09-10 19:00:00
2:00 PM,84.2,75.2,74,29.82,6.2,West,10.4,-,N/A,,Mostly Cloudy,270,2013-09-10 20:00:00
3:00 PM,83,75,71,29.81,12,West,8.1,,,,Overcast,280,2013-09-10 21:00:00
3:00 PM,82.4,75.2,79,29.80,6.2,West,8.1,-,N/A,,Mostly Cloudy,280,2013-09-10 21:00:00
4:00 PM,82.4,75.2,79,29.82,6.2,WNW,4.6,-,N/A,Rain,Light Rain,300,2013-09-10 22:00:00
5:00 PM,80.6,77.0,89,29.80,6.2,NW,3.5,-,N/A,Rain,Rain,320,2013-09-10 23:00:00
6:00 PM,81,77,83,29.85,12,ENE,3.5,,,,Overcast,60,2013-09-11 00:00:00
6:00 PM,80.6,77.0,89,29.83,6.2,ENE,3.5,-,N/A,,Mostly Cloudy,60,2013-09-11 00:00:00
7:00 PM,78.8,77.0,94,29.85,6.2,East,3.5,-,N/A,,Mostly Cloudy,90,2013-09-11 01:00:00
8:00 PM,78.8,75.2,89,29.88,6.2,ESE,3.5,-,N/A,,Mostly Cloudy,110,2013-09-11 02:00:00